FW6574 Weather Reports


time (UTC)temp
C
wind
direction
speed
KPH
gust
KPH
rain 1hr
cm
rain 24hr
cm
rain mn
cm
humidity
%
barometer
mb
20260508064545 3 0 0.0 0.0 0.00 0.05 0.00 93 1015.5
20260508064015 3 0 0.0 0.0 0.00 0.05 0.00 93 1015.4
20260508063512 3 0 0.0 0.0 0.00 0.05 0.00 93 1015.5
20260508063036 3 0 0.0 0.0 0.00 0.05 0.00 93 1015.4
20260508062515 4 0 0.0 0.0 0.00 0.05 0.00 93 1015.5
20260508062016 4 0 0.0 0.0 0.00 0.05 0.00 92 1015.4
20260508061536 4 0 0.0 0.0 0.00 0.05 0.00 92 1015.4
20260508061018 4 0 0.0 0.0 0.00 0.05 0.00 93 1015.4
20260508060515 4 0 0.0 0.0 0.00 0.05 0.00 93 1015.4
20260508060031 4 0 0.0 0.0 0.00 0.05 0.00 93 1015.5
20260508055514 4 0 0.0 0.0 0.00 0.05 0.00 92 1015.4
20260508055015 4 0 0.0 0.0 0.00 0.05 0.00 92 1015.2
20260508054531 5 0 0.0 0.0 0.00 0.05 0.00 92 1015.3
20260508054014 5 0 0.0 0.0 0.00 0.05 0.00 92 1015.2
20260508053517 5 0 0.0 0.0 0.00 0.05 0.00 92 1015.1
20260508053032 5 0 0.0 0.0 0.00 0.05 0.00 92 1014.9
20260508052518 5 0 0.0 0.0 0.00 0.05 0.00 92 1014.9
20260508052014 5 0 0.0 0.0 0.00 0.05 0.00 92 1014.7
20260508051532 5 0 0.0 0.0 0.00 0.05 0.00 92 1014.7
20260508051015 5 0 0.0 0.0 0.00 0.05 0.00 92 1014.7
20260508050516 5 0 0.0 0.0 0.00 0.05 0.00 92 1014.6
20260508050036 5 0 0.0 0.0 0.00 0.05 0.00 92 1014.5
20260508045515 5 0 0.0 4.8 0.00 0.08 0.00 92 1014.4
20260508045013 5 0 0.0 4.8 0.00 0.08 0.00 92 1014.4
20260508044534 5 0 0.0 4.8 0.00 0.08 0.00 92 1014.6
20260508044016 5 0 0.0 4.8 0.00 0.08 0.00 92 1014.5
20260508043519 5 0 0.0 0.0 0.00 0.08 0.00 92 1014.4
20260508043036 6 0 0.0 0.0 0.00 0.08 0.00 92 1014.4
20260508042513 6 0 0.0 0.0 0.00 0.08 0.00 92 1014.4
20260508042014 6 0 0.0 0.0 0.00 0.08 0.00 92 1014.5
20260508041532 6 0 0.0 0.0 0.00 0.08 0.00 92 1014.5
20260508041013 6 0 0.0 3.2 0.00 0.08 0.00 91 1014.3
20260508040515 6 0 0.0 3.2 0.00 0.08 0.00 91 1014.3
20260508040035 6 360 0.0 6.4 0.00 0.08 0.00 91 1014.2
20260508035520 6 0 1.6 6.4 0.00 0.08 0.08 91 1014.1
20260508035015 6 360 1.6 6.4 0.00 0.08 0.08 91 1014.1
20260508034532 6 0 0.0 0.0 0.00 0.08 0.08 91 1014.0
20260508034015 6 0 0.0 0.0 0.00 0.08 0.08 90 1014.0
20260508033515 7 0 0.0 0.0 0.00 0.08 0.08 90 1014.0
20260508033035 7 0 0.0 0.0 0.00 0.08 0.08 90 1014.1
20260508032516 7 0 0.0 0.0 0.00 0.08 0.08 89 1014.0
20260508032014 7 0 0.0 0.0 0.00 0.08 0.08 89 1013.8
20260508031531 7 0 0.0 4.8 0.00 0.08 0.08 90 1013.7
20260508031015 7 0 0.0 4.8 0.00 0.08 0.08 90 1013.6
20260508030514 7 360 0.0 4.8 0.00 0.08 0.08 90 1013.5
20260508030034 7 360 0.0 4.8 0.00 0.08 0.08 90 1013.7
20260508025515 7 0 0.0 4.8 0.00 0.13 0.08 89 1013.6
20260508025015 7 0 0.0 0.0 0.00 0.13 0.08 89 1013.5
20260508024534 7 0 0.0 0.0 0.00 0.13 0.08 89 1013.5
20260508024013 7 0 0.0 3.2 0.00 0.13 0.08 88 1013.5
20260508023515 8 0 0.0 4.8 0.00 0.13 0.08 88 1013.4
20260508023036 8 0 0.0 4.8 0.00 0.13 0.08 88 1013.3
20260508022514 8 0 0.0 3.2 0.00 0.13 0.08 88 1013.2
20260508022015 8 360 0.0 0.0 0.00 0.13 0.08 87 1013.0
20260508021534 8 0 0.0 0.0 0.00 0.13 0.08 88 1013.0
20260508021016 8 0 0.0 4.8 0.00 0.13 0.08 87 1012.9
20260508020515 8 0 0.0 4.8 0.00 0.13 0.08 87 1012.8
20260508020033 8 0 0.0 3.2 0.00 0.13 0.08 87 1012.9
20260508015515 8 0 0.0 3.2 0.00 0.13 0.08 87 1012.7
20260508015015 8 0 0.0 3.2 0.00 0.13 0.08 88 1012.5
20260508014534 8 0 0.0 3.2 0.00 0.13 0.08 87 1012.5
20260508014017 8 0 0.0 8.0 0.00 0.13 0.08 87 1012.5
20260508013517 8 0 1.6 8.0 0.00 0.13 0.08 86 1012.5
20260508013032 9 0 0.0 1.6 0.00 0.13 0.08 86 1012.5
20260508012518 9 0 0.0 0.0 0.00 0.13 0.08 86 1012.4
20260508012015 9 0 0.0 3.2 0.00 0.13 0.08 86 1012.2
20260508011544 9 0 0.0 3.2 0.00 0.13 0.08 85 1012.2
20260508011015 10 0 0.0 4.8 0.00 0.13 0.08 84 1012.2
20260508010513 10 58 0.0 4.8 0.00 0.13 0.08 84 1012.1
20260508010035 10 0 0.0 0.0 0.00 0.13 0.08 83 1012.0
20260508005520 10 0 0.0 0.0 0.00 0.13 0.08 82 1011.8
20260508005016 10 0 0.0 0.0 0.00 0.13 0.08 81 1011.8
20260508004545 11 0 0.0 0.0 0.00 0.13 0.08 81 1011.8
20260508004016 11 0 0.0 0.0 0.00 0.13 0.08 79 1011.8
20260508003515 11 0 0.0 3.2 0.00 0.13 0.08 78 1011.9
20260508003037 12 0 0.0 4.8 0.00 0.13 0.08 76 1011.8
20260508002516 12 78 0.0 4.8 0.00 0.13 0.08 74 1011.7
20260508002016 12 0 0.0 4.8 0.00 0.13 0.08 72 1011.7
20260508001536 13 0 0.0 4.8 0.00 0.13 0.08 70 1011.7
20260508001012 13 74 0.0 4.8 0.00 0.13 0.08 68 1011.5
20260508000518 13 0 0.0 4.8 0.00 0.13 0.08 66 1011.6
20260508000031 13 0 0.0 4.8 0.00 0.13 0.08 66 1011.5
20260507235512 13 250 0.0 3.2 0.00 0.13 0.08 67 1011.5
20260507235020 14 0 0.0 3.2 0.00 0.13 0.08 64 1011.4
20260507234532 15 113 0.0 4.8 0.00 0.13 0.08 61 1011.3
20260507234012 15 0 0.0 4.8 0.00 0.13 0.08 63 1011.3
20260507233512 15 0 0.0 3.2 0.00 0.13 0.08 58 1011.3
20260507233033 15 0 0.0 4.8 0.00 0.13 0.08 56 1011.1
20260507232520 15 301 0.0 4.8 0.00 0.13 0.08 55 1011.0
20260507232013 16 0 0.0 11.3 0.00 0.13 0.08 56 1010.7
20260507231534 16 290 0.0 11.3 0.00 0.13 0.08 53 1010.8
20260507231012 16 242 1.6 4.8 0.00 0.13 0.08 57 1010.7
20260507230514 16 0 0.0 9.7 0.00 0.13 0.08 56 1010.7
20260507230036 16 0 1.6 9.7 0.00 0.13 0.08 56 1010.6
20260507225513 16 298 1.6 9.7 0.00 0.13 0.08 55 1010.6
20260507225017 16 0 1.6 9.7 0.00 0.13 0.08 54 1010.4
20260507224537 16 242 1.6 9.7 0.00 0.13 0.08 54 1010.4
20260507224015 16 288 0.0 8.0 0.00 0.13 0.08 56 1010.4
20260507223515 16 264 1.6 8.0 0.00 0.13 0.08 56 1010.2
20260507223031 16 273 3.2 8.0 0.00 0.13 0.08 54 1010.3
20260507222514 16 246 3.2 11.3 0.00 0.13 0.08 54 1010.3
20260507222013 16 311 3.2 11.3 0.00 0.13 0.08 53 1010.4
20260507221534 16 260 3.2 8.0 0.00 0.13 0.08 53 1010.2
20260507221011 17 257 3.2 6.4 0.00 0.13 0.08 53 1010.2
20260507220513 17 0 1.6 9.7 0.00 0.13 0.08 54 1010.2
20260507220032 17 177 3.2 9.7 0.00 0.13 0.08 54 1010.1
20260507215515 17 240 3.2 8.0 0.00 0.13 0.08 55 1010.1
20260507215015 17 252 1.6 8.0 0.00 0.13 0.08 54 1009.9
20260507214531 17 296 1.6 8.0 0.00 0.13 0.08 56 1009.8
20260507214014 17 0 1.6 11.3 0.00 0.13 0.08 56 1009.8
20260507213517 17 290 3.2 11.3 0.00 0.13 0.08 56 1009.9
20260507213033 17 277 3.2 8.0 0.00 0.13 0.08 55 1009.8
20260507212515 17 107 3.2 9.7 0.00 0.13 0.08 57 1009.8
20260507212016 17 0 1.6 12.9 0.00 0.13 0.08 55 1009.8
20260507211532 17 329 3.2 12.9 0.00 0.13 0.08 54 1009.6
20260507211015 18 285 4.8 12.9 0.00 0.13 0.08 56 1009.7
20260507210519 17 0 1.6 8.0 0.00 0.13 0.08 59 1009.6
20260507210033 17 279 0.0 9.7 0.00 0.13 0.08 59 1009.4
20260507205515 17 253 3.2 9.7 0.00 0.13 0.08 56 1009.4
20260507205015 18 200 1.6 9.7 0.00 0.13 0.08 59 1009.4
20260507204530 18 280 1.6 6.4 0.00 0.13 0.08 59 1009.3
20260507204015 17 336 1.6 9.7 0.00 0.13 0.08 59 1009.4
20260507203516 17 225 0.0 9.7 0.00 0.13 0.08 61 1009.2
20260507203032 17 0 3.2 6.4 0.00 0.13 0.08 67 1009.3
20260507202514 17 0 0.0 8.0 0.00 0.13 0.08 63 1009.5
20260507202015 17 0 0.0 8.0 0.00 0.13 0.08 64 1009.5
20260507201532 17 320 1.6 8.0 0.00 0.13 0.08 65 1009.6
20260507201015 17 0 0.0 9.7 0.00 0.13 0.08 67 1009.4
20260507200518 17 0 0.0 9.7 0.00 0.13 0.08 70 1009.6
20260507200036 17 189 1.6 9.7 0.00 0.13 0.08 69 1009.7
20260507195515 16 0 0.0 4.8 0.00 0.13 0.08 71 1009.7
20260507195015 16 0 0.0 3.2 0.00 0.13 0.08 73 1009.9
20260507194532 15 0 0.0 6.4 0.00 0.13 0.08 73 1009.9
20260507194015 15 0 0.0 6.4 0.00 0.13 0.08 73 1010.2
20260507193515 15 0 0.0 3.2 0.00 0.13 0.08 77 1010.3
20260507193032 15 0 0.0 3.2 0.00 0.13 0.08 78 1010.3
20260507192515 15 178 0.0 1.6 0.00 0.13 0.08 76 1010.7
20260507192015 14 0 0.0 0.0 0.00 0.13 0.08 77 1010.9
20260507191532 14 0 0.0 0.0 0.00 0.13 0.08 79 1010.9
20260507191014 13 0 0.0 0.0 0.00 0.13 0.08 81 1010.9
20260507190512 13 0 0.0 3.2 0.00 0.13 0.08 80 1010.8
20260507190040 13 0 0.0 3.2 0.00 0.13 0.08 80 1011.0
20260507185515 13 0 0.0 6.4 0.00 0.13 0.08 79 1011.2
20260507185011 13 0 1.6 6.4 0.00 0.13 0.08 82 1011.2
20260507184538 13 0 0.0 3.2 0.00 0.13 0.08 85 1011.4
20260507184014 13 0 0.0 1.6 0.00 0.13 0.08 84 1011.4
20260507183513 13 0 0.0 0.0 0.00 0.13 0.08 86 1011.4
20260507183037 13 0 0.0 0.0 0.00 0.13 0.08 86 1011.4
20260507182512 13 0 0.0 0.0 0.03 0.13 0.08 86 1011.3
20260507182016 12 0 0.0 0.0 0.05 0.13 0.08 87 1011.3
20260507181532 12 0 0.0 0.0 0.05 0.13 0.08 89 1011.3
20260507181015 12 0 0.0 0.0 0.05 0.13 0.08 89 1011.5
20260507180515 13 0 0.0 0.0 0.05 0.13 0.08 91 1011.4
20260507180034 12 0 0.0 0.0 0.05 0.13 0.08 90 1011.2
20260507175515 12 0 0.0 0.0 0.05 0.13 0.08 88 1011.4
20260507175017 12 0 0.0 0.0 0.05 0.13 0.08 87 1011.3
20260507174536 12 0 0.0 0.0 0.05 0.13 0.08 89 1011.5
20260507174014 12 0 0.0 0.0 0.05 0.13 0.08 90 1011.5
20260507173516 12 0 0.0 0.0 0.05 0.13 0.08 89 1011.5
20260507173035 12 0 0.0 0.0 0.05 0.13 0.08 89 1011.4
20260507172517 12 0 0.0 0.0 0.03 0.10 0.05 87 1011.7
20260507172014 12 0 0.0 0.0 0.00 0.08 0.03 86 1011.6
20260507171534 12 0 0.0 0.0 0.00 0.08 0.03 83 1011.8
20260507171015 13 0 0.0 0.0 0.00 0.08 0.03 86 1011.6
20260507170517 13 0 0.0 0.0 0.00 0.08 0.03 86 1011.6
20260507170035 12 0 0.0 3.2 0.00 0.08 0.03 85 1011.8
20260507165514 12 0 0.0 3.2 0.00 0.08 0.03 87 1011.9
20260507165015 12 0 0.0 3.2 0.00 0.08 0.03 85 1012.0
20260507164533 12 0 0.0 4.8 0.00 0.08 0.03 84 1011.9
20260507164020 13 0 0.0 4.8 0.00 0.08 0.03 84 1011.9
20260507163514 13 0 0.0 4.8 0.00 0.08 0.03 84 1011.6
20260507163033 12 0 0.0 4.8 0.00 0.08 0.03 85 1011.7
20260507162515 13 0 0.0 0.0 0.00 0.08 0.03 86 1011.7
20260507162017 13 0 0.0 0.0 0.00 0.08 0.03 88 1011.5
20260507161531 13 0 0.0 0.0 0.00 0.08 0.03 87 1011.7
20260507161014 12 0 0.0 0.0 0.00 0.08 0.03 88 1011.7
20260507160512 13 0 0.0 0.0 0.00 0.08 0.03 89 1011.6
20260507160034 12 0 0.0 0.0 0.00 0.08 0.03 88 1011.8
20260507155512 12 0 0.0 0.0 0.00 0.08 0.03 87 1011.9
20260507155015 12 0 0.0 3.2 0.00 0.08 0.03 87 1011.8
20260507154533 13 0 0.0 3.2 0.00 0.08 0.03 85 1012.0
20260507154016 13 0 0.0 4.8 0.00 0.08 0.03 82 1012.1
20260507153515 13 0 0.0 4.8 0.00 0.08 0.03 79 1012.3
20260507153033 13 0 0.0 4.8 0.00 0.08 0.03 80 1012.2
20260507152515 13 0 0.0 6.4 0.00 0.08 0.03 79 1012.1
20260507152015 14 0 0.0 6.4 0.00 0.08 0.03 79 1012.0
20260507151534 14 242 1.6 6.4 0.00 0.08 0.03 80 1011.8
20260507151016 13 0 1.6 6.4 0.00 0.08 0.03 79 1011.9
20260507150511 14 0 0.0 6.4 0.00 0.08 0.03 79 1012.0
20260507150031 14 0 0.0 0.0 0.00 0.08 0.03 82 1011.9
20260507145512 14 0 0.0 0.0 0.00 0.08 0.03 82 1011.9
20260507145012 14 0 0.0 0.0 0.00 0.08 0.03 80 1011.9
20260507144534 14 0 0.0 0.0 0.00 0.08 0.03 81 1011.8
20260507144016 14 0 0.0 0.0 0.00 0.08 0.03 81 1011.9
20260507143518 14 0 0.0 0.0 0.00 0.08 0.03 82 1011.7
20260507143034 14 0 0.0 0.0 0.00 0.08 0.03 82 1011.8
20260507142516 14 0 0.0 3.2 0.00 0.08 0.03 83 1011.5
20260507142011 14 0 0.0 3.2 0.00 0.08 0.03 82 1011.6
20260507141531 14 286 0.0 3.2 0.00 0.08 0.03 81 1011.6
20260507141014 15 0 0.0 4.8 0.00 0.08 0.03 80 1011.7
20260507140516 15 0 0.0 4.8 0.00 0.08 0.03 82 1011.7
20260507140036 15 250 0.0 4.8 0.00 0.08 0.03 82 1011.5
20260507135512 15 0 0.0 0.0 0.00 0.08 0.03 83 1011.4
20260507135015 14 0 0.0 1.6 0.00 0.08 0.03 83 1011.5
20260507134531 14 0 0.0 1.6 0.00 0.08 0.03 81 1012.0
20260507134014 14 0 0.0 0.0 0.00 0.08 0.03 81 1012.1
20260507133513 14 0 0.0 4.8 0.00 0.08 0.03 84 1011.9
20260507133031 14 0 0.0 4.8 0.00 0.08 0.03 82 1012.2
20260507132513 14 0 0.0 0.0 0.00 0.08 0.03 85 1012.0
20260507132014 14 0 0.0 0.0 0.00 0.08 0.03 86 1012.0
20260507131535 14 0 0.0 4.8 0.00 0.08 0.03 84 1012.2
20260507131015 14 0 0.0 4.8 0.00 0.08 0.03 84 1012.2
20260507130519 14 0 0.0 0.0 0.00 0.08 0.03 84 1012.2
20260507130043 14 0 0.0 0.0 0.00 0.08 0.03 85 1012.1
20260507125519 14 0 0.0 0.0 0.00 0.08 0.03 85 1012.0
20260507125016 14 0 0.0 0.0 0.00 0.08 0.03 84 1012.0
20260507124536 14 0 0.0 0.0 0.00 0.08 0.03 85 1011.8
20260507124016 14 0 0.0 0.0 0.00 0.08 0.03 86 1012.0
20260507123516 14 0 0.0 0.0 0.00 0.08 0.03 88 1011.8
20260507123042 14 0 0.0 0.0 0.00 0.08 0.03 88 1012.0
20260507122516 14 0 0.0 0.0 0.00 0.08 0.03 88 1012.0
20260507122014 14 0 0.0 0.0 0.00 0.08 0.03 89 1011.9
20260507121541 13 0 0.0 0.0 0.00 0.08 0.03 91 1011.8
20260507121021 13 0 0.0 0.0 0.00 0.08 0.03 91 1011.9
20260507120516 13 0 0.0 0.0 0.00 0.08 0.03 93 1011.9
20260507120033 13 0 0.0 0.0 0.00 0.08 0.03 94 1012.2
20260507115517 13 0 0.0 0.0 0.00 0.08 0.03 94 1011.9
20260507115016 13 0 0.0 0.0 0.00 0.08 0.03 94 1012.0
20260507114532 13 0 0.0 0.0 0.00 0.08 0.03 94 1011.8
20260507114018 13 0 0.0 0.0 0.00 0.08 0.03 94 1011.9
20260507113517 13 0 0.0 0.0 0.00 0.08 0.03 95 1011.8
20260507113035 13 0 0.0 0.0 0.00 0.08 0.03 96 1011.8
20260507112514 13 0 0.0 0.0 0.00 0.08 0.03 96 1011.6
20260507112018 13 0 0.0 0.0 0.00 0.08 0.03 96 1011.7
20260507111533 13 0 0.0 0.0 0.00 0.08 0.03 96 1011.4
20260507111013 13 0 0.0 0.0 0.00 0.08 0.03 96 1011.2
20260507110517 13 0 0.0 0.0 0.00 0.08 0.03 96 1011.2
20260507110034 13 0 0.0 0.0 0.00 0.08 0.03 96 1011.0
20260507105513 13 0 0.0 0.0 0.00 0.08 0.03 96 1011.2
20260507105016 13 0 0.0 0.0 0.00 0.08 0.03 96 1011.3
20260507104533 13 0 0.0 0.0 0.00 0.08 0.03 96 1011.2
20260507104016 13 0 0.0 0.0 0.00 0.08 0.03 96 1011.3
20260507103516 13 0 0.0 0.0 0.00 0.08 0.03 96 1011.3
20260507103033 13 0 0.0 0.0 0.00 0.08 0.03 96 1011.2
20260507102517 13 0 0.0 0.0 0.00 0.08 0.03 96 1011.2
20260507102014 13 0 0.0 0.0 0.00 0.08 0.03 96 1011.0
20260507101537 13 0 0.0 0.0 0.00 0.08 0.03 96 1011.0
20260507101017 13 0 0.0 0.0 0.00 0.08 0.03 96 1010.7
20260507100513 13 0 0.0 0.0 0.00 0.08 0.03 96 1010.8
20260507100035 13 0 0.0 0.0 0.00 0.08 0.03 96 1011.2
20260507095514 13 0 0.0 0.0 0.00 0.08 0.03 96 1010.9
20260507095023 13 0 0.0 0.0 0.00 0.08 0.03 96 1011.2
20260507094536 13 0 0.0 0.0 0.00 0.08 0.03 96 1011.2
20260507094013 13 0 0.0 0.0 0.00 0.08 0.03 96 1011.1
20260507093516 13 0 0.0 0.0 0.00 0.08 0.03 96 1011.1
20260507093038 13 0 0.0 0.0 0.00 0.08 0.03 96 1010.8
20260507092513 13 0 0.0 0.0 0.00 0.08 0.03 96 1011.1
20260507092013 13 0 0.0 0.0 0.00 0.08 0.03 96 1011.3
20260507091532 13 0 0.0 0.0 0.00 0.08 0.03 96 1011.2
20260507091016 13 0 0.0 0.0 0.00 0.08 0.03 96 1010.9
20260507090515 13 0 0.0 0.0 0.00 0.08 0.03 96 1010.7
20260507090034 13 0 0.0 0.0 0.00 0.08 0.03 96 1010.5
20260507085514 13 0 0.0 0.0 0.00 0.08 0.03 96 1010.4
20260507085017 13 0 0.0 0.0 0.00 0.08 0.03 97 1010.4
20260507084533 13 0 0.0 0.0 0.00 0.08 0.03 97 1010.6
20260507084022 13 0 0.0 0.0 0.00 0.08 0.03 97 1010.8
20260507083515 13 0 0.0 0.0 0.00 0.08 0.03 97 1010.8
20260507083038 13 0 0.0 0.0 0.00 0.08 0.03 97 1010.9
20260507082513 13 0 0.0 0.0 0.00 0.08 0.03 97 1010.9
20260507082016 14 0 0.0 0.0 0.00 0.08 0.03 97 1011.0
20260507081532 14 0 0.0 0.0 0.00 0.08 0.03 97 1011.0
20260507081014 14 0 0.0 0.0 0.00 0.08 0.03 97 1010.8
20260507080517 14 0 0.0 0.0 0.00 0.08 0.03 97 1010.9
20260507080033 14 0 0.0 0.0 0.00 0.08 0.03 97 1010.8
20260507075513 14 0 0.0 0.0 0.00 0.08 0.03 97 1010.7
20260507075014 14 0 0.0 0.0 0.00 0.08 0.03 97 1010.7
20260507074542 14 0 0.0 0.0 0.00 0.08 0.03 96 1010.9
20260507074016 14 0 0.0 0.0 0.00 0.08 0.03 97 1010.8
20260507073516 14 0 0.0 0.0 0.00 0.08 0.03 97 1011.0
20260507073033 15 0 0.0 0.0 0.00 0.08 0.03 97 1010.7
20260507072516 15 0 0.0 0.0 0.00 0.08 0.03 97 1010.7
20260507072013 15 0 0.0 0.0 0.00 0.08 0.03 97 1010.7
20260507071551 15 0 0.0 0.0 0.00 0.08 0.03 96 1010.8
20260507071022 15 0 0.0 0.0 0.00 0.08 0.03 96 1010.8
20260507070517 15 0 0.0 0.0 0.00 0.08 0.03 96 1010.8
20260507070036 15 0 0.0 0.0 0.00 0.08 0.03 96 1010.4
20260507065519 15 0 0.0 0.0 0.00 0.08 0.03 97 1010.6
20260507065015 15 0 0.0 0.0 0.00 0.08 0.03 97 1010.6